256  
ASUS46 KEKA 231515  
RWREKA  
EUREKA AREA WEATHER ROUNDUP  
NATIONAL WEATHER SERVICE EUREKA CA  
800 AM PDT MON OCT 23 2017  
 
NOTE: "FAIR" INDICATES FEW OR NO CLOUDS BELOW 12,000 FEET WITH NO  
SIGNIFICANT WEATHER AND/OR S TO VISIBILITY
.  
 
SOUTHWEST OREGON...  
 
CITY SKY/WX TMP DP RH WIND PRES REMARKS
 
MEDFORD FOG 52 52 100 N5 30.53R VSB 1/2  
KLAMATH FALLS FOG 43 43 100 N5 30.59R VSB 1/4  
NORTH BEND CLEAR 49 49 100 E5 30.51S  
ROSEBURG CLOUDY 51 50 96 CALM 30.54S FOG  
SEXTON SUMMIT CLEAR 48 47 96 E6 30.53R  
BROOKINGS CLEAR 53 52 96 CALM 30.43S  
 
NORTHWEST CALIFORNIA...  
 
CITY SKY/WX TMP DP RH WIND PRES REMARKS
 
CRESCENT CITY FOG 49 49 100 N6 30.42S VSB 1/4  
MCKINLEYVILLE PTCLDY 49 49 100 S3 30.38S FOG  
EUREKA NOT AVBL  
FORTUNA CLOUDY 50 50 100 S3 30.39R VSB<1/4  
WEAVERVILLE NOT AVBL  
TRINITY CENTER N/A 46 46 100 CALM 30.50S  
UKIAH CLEAR 49 46 90 CALM 30.30S  
 
NORTH & CENTRAL CALIFORNIA...  
 
CITY SKY/WX TMP DP RH WIND PRES REMARKS
 
YREKA FOG 40 40 100 CALM 30.56R VSB<1/4  
MOUNT SHASTA CLEAR 46 44 93 CALM 30.54R  
REDDING CLEAR 70 49 47 N13G23 30.32S  
RED BLUFF CLEAR 67 50 54 NW12 30.31S  
CHICO NOT AVBL  
YUBA CITY CLEAR 50 48 93 CALM 30.26R  
SACRAMENTO CLEAR 50 49 96 CALM 30.26R  
SANTA ROSA CLEAR 49 48 97 CALM 30.23R  
NAPA CLEAR 47 47 100 CALM 30.24S  
SAN FRANCISCO CLEAR 59 53 80 CALM 30.23S  
OAKLAND PTCLDY 54 51 90 CALM 30.24S  
SALINAS CLEAR 54 44 69 E13 30.22S  
MONTEREY CLEAR 58 43 57 E9 30.21R  
 

 
 
 
CLICK HERE TO GO TO PREVIOUS BULLETINS.

The Nexlab CA Page Main Text Page